User: anonymous   Login
Location: Unspecified
(0.0000°N, 0.0000°E)
Time: 18:25:48
(UTC+00:00)
Language:

NNS O-2 - Orbit

View from above orbital plane
View from above orbital plane
View from above satellite
View from above satellite

Ground track
Ground track

The orbit data is extracted from the following two-line orbital elements,

1   965U 64083D   17080.89586576 +.00000018 +00000-0 +12060-4 0  9993
2   965 090.0143 191.5609 0042059 063.6657 056.0690 13.56698404586161
Epoch (UTC): 21 March 2017 21:30:02
Eccentricity: 0.0042059
inclination: 90.0143°
perigee height: 1016 km
apogee height: 1079 km
right ascension of ascending node: 191.5609°
argument of perigee: 63.6657°
revolutions per day: 13.56698404
mean anomaly at epoch: 56.0690°
orbit number at epoch: 58616

The dashed part of the orbit path shows where the satellite is in the earth's shadow,  

DLR